Location: Il Ritiro
(43.4167°N, 13.1333°E)
Time: 16:28:25
(UTC+00:00)

Lacrosse 5 rocket - Pass Details

Date: 05 July 2020
Orbit: 465 x 632 km, 57.0° (Epoch: 11 August)

Event Time Altitude Azimuth Distance (km) Brightness Sun altitude
Rises 22:56:04 0° 317° (NW) 2,711 5.6 -23.8°
Reaches altitude 10° 22:58:48 10° 334° (NNW) 1,780 4.8 -23.8°
Maximum altitude 23:01:50 20° 23° (NNE) 1,226 3.8 -23.9°
Drops below altitude 10° 23:04:45 10° 73° (ENE) 1,704 4.0 -23.9°
Enters shadow 23:06:17 - 85° (E) 2,198 4.4 -23.9°
